Location: Fluertsh�userhof
(48.7537°N, 10.3850°E)
Time: 08:53:04
(UTC+00:00)

Cosmos 1844 Rocket - Pass Details

Date: 18 September 2020
Orbit: 823 x 846 km, 71.0° (Epoch: 24 October)

Event Time Altitude Azimuth Distance (km) Brightness Sun altitude
Rises 19:39:00 0° 204° (SSW) 3,346 5.8 -22.0°
Reaches altitude 10° 19:41:25 10° 204° (SSW) 2,418 5.0 -22.3°
Maximum altitude 19:46:58 85° 116° (ESE) 836 2.5 -23.1°
Drops below altitude 10° 19:52:35 10° 29° (NNE) 2,445 5.1 -23.9°
Sets 19:55:02 0° 29° (NNE) 3,386 5.9 -24.2°
